| time (UTC) | temp F | wind direction | speed MPH | gust MPH | rain 1hr in | rain 24hr in | rain mn in | humidity % | barometer mb |
| 20260507071424 | 53 | 292 | 0.0 | 0.0 | 0.00 | 0.16 | 0.00 | 89 | 1014.9 |
| 20260507070440 | 53 | 180 | 0.0 | 0.0 | 0.00 | 0.16 | 0.00 | 89 | 1015.3 |
| 20260507065427 | 53 | 247 | 0.0 | 2.0 | 0.00 | 0.16 | 0.00 | 88 | 1015.5 |
| 20260507064425 | 53 | 211 | 0.0 | 1.0 | 0.00 | 0.16 | 0.00 | 89 | 1015.5 |
| 20260507062427 | 54 | 247 | 0.0 | 0.0 | 0.00 | 0.16 | 0.00 | 88 | 1015.5 |
| 20260507060426 | 54 | 194 | 2.0 | 7.0 | 0.00 | 0.16 | 0.00 | 88 | 1015.3 |
| 20260507055425 | 54 | 178 | 0.0 | 2.0 | 0.00 | 0.16 | 0.00 | 87 | 1015.4 |
| 20260507054425 | 54 | 221 | 2.0 | 9.0 | 0.00 | 0.16 | 0.00 | 87 | 1015.8 |
| 20260507052525 | 54 | 229 | 0.0 | 1.0 | 0.00 | 0.16 | 0.00 | 88 | 1016.0 |
| 20260507051525 | 54 | 247 | 1.0 | 4.0 | 0.00 | 0.16 | 0.00 | 87 | 1015.9 |
| 20260507050542 | 54 | 220 | 0.0 | 3.0 | 0.00 | 0.16 | 0.00 | 88 | 1016.4 |
| 20260507045626 | 55 | 247 | 0.0 | 1.0 | 0.00 | 0.16 | 0.00 | 87 | 1016.5 |
| 20260507044725 | 55 | 207 | 2.0 | 5.0 | 0.00 | 0.16 | 0.00 | 87 | 1016.5 |
| 20260507043725 | 55 | 209 | 1.0 | 4.0 | 0.00 | 0.16 | 0.00 | 87 | 1016.8 |
| 20260507042726 | 55 | 212 | 0.0 | 2.0 | 0.00 | 0.16 | 0.00 | 87 | 1016.5 |
| 20260507041725 | 55 | 233 | 3.0 | 7.0 | 0.00 | 0.16 | 0.00 | 87 | 1016.6 |
| 20260507040727 | 55 | 224 | 2.0 | 5.0 | 0.00 | 0.16 | 0.00 | 86 | 1016.8 |
| 20260507034907 | 55 | 215 | 1.0 | 5.0 | 0.00 | 0.16 | 0.16 | 86 | 1016.9 |
| 20260507032910 | 55 | 217 | 4.0 | 7.0 | 0.00 | 0.16 | 0.16 | 86 | 1016.7 |
| 20260507032009 | 55 | 221 | 5.0 | 10.0 | 0.00 | 0.16 | 0.16 | 86 | 1017.1 |
| 20260507031025 | 55 | 224 | 4.0 | 7.0 | 0.00 | 0.16 | 0.16 | 86 | 1016.8 |
| 20260507030008 | 55 | 230 | 4.0 | 10.0 | 0.00 | 0.16 | 0.16 | 85 | 1016.7 |
| 20260507025011 | 55 | 228 | 5.0 | 9.0 | 0.00 | 0.16 | 0.16 | 85 | 1016.7 |
| 20260507024109 | 55 | 218 | 5.0 | 9.0 | 0.00 | 0.16 | 0.16 | 85 | 1017.1 |
| 20260507023109 | 55 | 218 | 2.0 | 4.0 | 0.00 | 0.16 | 0.16 | 85 | 1017.1 |
| 20260507023010 | 55 | 220 | 2.0 | 5.0 | 0.00 | 0.16 | 0.16 | 85 | 1017.3 |
| 20260507022011 | 55 | 220 | 3.0 | 6.0 | 0.00 | 0.16 | 0.16 | 84 | 1017.3 |
| 20260507020925 | 55 | 236 | 2.0 | 4.0 | 0.00 | 0.16 | 0.16 | 84 | 1017.5 |
| 20260507020011 | 55 | 213 | 4.0 | 8.0 | 0.00 | 0.16 | 0.16 | 84 | 1017.5 |
| 20260507015010 | 55 | 230 | 2.0 | 6.0 | 0.00 | 0.16 | 0.16 | 84 | 1017.7 |
| 20260507012208 | 55 | 234 | 3.0 | 8.0 | 0.01 | 0.16 | 0.16 | 83 | 1018.0 |
| 20260507011210 | 55 | 229 | 4.0 | 7.0 | 0.04 | 0.16 | 0.16 | 83 | 1018.1 |
| 20260507010210 | 55 | 218 | 1.0 | 3.0 | 0.06 | 0.16 | 0.16 | 81 | 1018.0 |
| 20260507005209 | 55 | 217 | 4.0 | 16.0 | 0.10 | 0.16 | 0.16 | 82 | 1017.8 |
| 20260507003309 | 55 | 230 | 2.0 | 6.0 | 0.12 | 0.16 | 0.16 | 80 | 1017.8 |
| 20260507002310 | 55 | 225 | 1.0 | 6.0 | 0.11 | 0.15 | 0.15 | 81 | 1017.8 |
| 20260507001310 | 54 | 222 | 1.0 | 7.0 | 0.09 | 0.12 | 0.12 | 80 | 1017.8 |
| 20260506235410 | 54 | 227 | 2.0 | 4.0 | 0.05 | 0.06 | 0.06 | 80 | 1017.8 |
| 20260506234325 | 54 | 220 | 1.0 | 7.0 | 0.05 | 0.06 | 0.06 | 80 | 1017.6 |
| 20260506233409 | 54 | 214 | 4.0 | 8.0 | 0.04 | 0.04 | 0.04 | 79 | 1017.5 |
| 20260506232424 | 54 | 211 | 3.0 | 9.0 | 0.04 | 0.04 | 0.04 | 78 | 1017.6 |
| 20260506231510 | 54 | 214 | 3.0 | 7.0 | 0.03 | 0.03 | 0.03 | 78 | 1017.9 |
| 20260506230510 | 54 | 203 | 3.0 | 5.0 | 0.02 | 0.02 | 0.02 | 78 | 1018.1 |
| 20260506224510 | 54 | 217 | 4.0 | 10.0 | 0.01 | 0.01 | 0.01 | 78 | 1018.3 |
| 20260506223609 | 54 | 209 | 3.0 | 7.0 | 0.00 | 0.00 | 0.00 | 77 | 1018.3 |
| 20260506221709 | 55 | 204 | 4.0 | 13.0 | 0.00 | 0.00 | 0.00 | 77 | 1018.5 |
| 20260506215727 | 55 | 207 | 2.0 | 10.0 | 0.00 | 0.00 | 0.00 | 78 | 1018.3 |
| 20260506214808 | 55 | 231 | 4.0 | 7.0 | 0.00 | 0.00 | 0.00 | 78 | 1018.5 |
| 20260506213808 | 55 | 201 | 3.0 | 8.0 | 0.00 | 0.00 | 0.00 | 77 | 1018.5 |
| 20260506212811 | 56 | 213 | 2.0 | 5.0 | 0.00 | 0.00 | 0.00 | 76 | 1018.7 |
| 20260506211909 | 56 | 220 | 5.0 | 12.0 | 0.00 | 0.00 | 0.00 | 77 | 1018.9 |
| 20260506210911 | 56 | 232 | 2.0 | 5.0 | 0.00 | 0.00 | 0.00 | 76 | 1018.6 |
| 20260506204911 | 56 | 208 | 2.0 | 4.0 | 0.00 | 0.00 | 0.00 | 77 | 1018.9 |
| 20260506204008 | 56 | 218 | 2.0 | 5.0 | 0.00 | 0.00 | 0.00 | 77 | 1018.9 |
| 20260506203010 | 56 | 214 | 1.0 | 4.0 | 0.00 | 0.00 | 0.00 | 76 | 1019.2 |
| 20260506201025 | 57 | 221 | 3.0 | 4.0 | 0.00 | 0.00 | 0.00 | 77 | 1019.2 |
| 20260506200109 | 57 | 215 | 4.0 | 10.0 | 0.00 | 0.00 | 0.00 | 76 | 1019.2 |
| 20260506194210 | 57 | 196 | 2.0 | 6.0 | 0.00 | 0.00 | 0.00 | 76 | 1019.6 |
| 20260506193309 | 57 | 214 | 3.0 | 7.0 | 0.00 | 0.00 | 0.00 | 75 | 1019.8 |
| 20260506192407 | 57 | 220 | 2.0 | 4.0 | 0.00 | 0.00 | 0.00 | 75 | 1019.9 |
| 20260506191410 | 57 | 207 | 2.0 | 4.0 | 0.00 | 0.00 | 0.00 | 76 | 1019.5 |
| 20260506190410 | 57 | 208 | 2.0 | 6.0 | 0.00 | 0.00 | 0.00 | 76 | 1019.6 |
| 20260506185409 | 57 | 216 | 1.0 | 3.0 | 0.00 | 0.00 | 0.00 | 76 | 1019.6 |
| 20260506183509 | 58 | 224 | 4.0 | 11.0 | 0.00 | 0.00 | 0.00 | 77 | 1020.0 |
| 20260506182509 | 58 | 194 | 5.0 | 10.0 | 0.00 | 0.00 | 0.00 | 77 | 1020.5 |
| 20260506181608 | 59 | 191 | 5.0 | 8.0 | 0.00 | 0.00 | 0.00 | 76 | 1020.7 |
| 20260506180610 | 59 | 199 | 7.0 | 10.0 | 0.00 | 0.00 | 0.00 | 76 | 1020.7 |
| 20260506174608 | 60 | 201 | 3.0 | 12.0 | 0.00 | 0.00 | 0.00 | 78 | 1021.0 |
| 20260506173707 | 61 | 194 | 5.0 | 10.0 | 0.00 | 0.00 | 0.00 | 77 | 1020.8 |
| 20260506172709 | 60 | 190 | 4.0 | 8.0 | 0.00 | 0.00 | 0.00 | 77 | 1020.9 |
| 20260506171725 | 60 | 193 | 2.0 | 7.0 | 0.00 | 0.00 | 0.00 | 78 | 1020.8 |
| 20260506170809 | 61 | 199 | 4.0 | 12.0 | 0.00 | 0.00 | 0.00 | 78 | 1021.1 |
| 20260506165824 | 60 | 196 | 5.0 | 12.0 | 0.00 | 0.00 | 0.00 | 77 | 1021.5 |
| 20260506164810 | 60 | 190 | 3.0 | 7.0 | 0.00 | 0.00 | 0.00 | 78 | 1021.5 |
| 20260506162910 | 60 | 193 | 4.0 | 7.0 | 0.00 | 0.00 | 0.00 | 79 | 1021.6 |
| 20260506162009 | 61 | 194 | 8.0 | 14.0 | 0.00 | 0.00 | 0.00 | 79 | 1021.8 |
| 20260506161008 | 61 | 191 | 5.0 | 15.0 | 0.00 | 0.00 | 0.00 | 79 | 1022.0 |
| 20260506160009 | 61 | 197 | 7.0 | 19.0 | 0.00 | 0.00 | 0.00 | 79 | 1022.0 |
| 20260506155009 | 60 | 195 | 6.0 | 16.0 | 0.00 | 0.00 | 0.00 | 80 | 1022.1 |
| 20260506154107 | 60 | 202 | 3.0 | 8.0 | 0.00 | 0.00 | 0.00 | 80 | 1022.1 |
| 20260506153111 | 59 | 198 | 5.0 | 15.0 | 0.00 | 0.00 | 0.00 | 79 | 1022.5 |
| 20260506152208 | 59 | 202 | 5.0 | 11.0 | 0.00 | 0.00 | 0.00 | 79 | 1022.4 |
| 20260506151210 | 59 | 191 | 4.0 | 8.0 | 0.00 | 0.00 | 0.00 | 80 | 1022.4 |
| 20260506145223 | 59 | 195 | 5.0 | 9.0 | 0.00 | 0.00 | 0.00 | 80 | 1022.1 |
| 20260506144308 | 59 | 197 | 4.0 | 12.0 | 0.00 | 0.00 | 0.00 | 81 | 1021.9 |
| 20260506144225 | 59 | 194 | 7.0 | 13.0 | 0.00 | 0.00 | 0.00 | 81 | 1021.9 |
| 20260506143209 | 60 | 190 | 1.0 | 4.0 | 0.00 | 0.00 | 0.00 | 82 | 1021.9 |
| 20260506142209 | 61 | 193 | 2.0 | 5.0 | 0.00 | 0.00 | 0.00 | 82 | 1022.2 |
| 20260506141209 | 61 | 199 | 2.0 | 6.0 | 0.00 | 0.00 | 0.00 | 82 | 1022.1 |
| 20260506140208 | 60 | 191 | 5.0 | 7.0 | 0.00 | 0.00 | 0.00 | 82 | 1022.3 |
| 20260506135211 | 61 | 197 | 6.0 | 12.0 | 0.00 | 0.00 | 0.00 | 83 | 1022.2 |
| 20260506134308 | 60 | 191 | 5.0 | 12.0 | 0.00 | 0.00 | 0.00 | 83 | 1022.2 |
| 20260506132408 | 61 | 218 | 2.0 | 8.0 | 0.00 | 0.00 | 0.00 | 84 | 1022.2 |
| 20260506131409 | 60 | 227 | 5.0 | 9.0 | 0.00 | 0.00 | 0.00 | 85 | 1022.2 |
| 20260506130410 | 60 | 214 | 2.0 | 4.0 | 0.00 | 0.00 | 0.00 | 84 | 1022.2 |
| 20260506125409 | 60 | 206 | 6.0 | 13.0 | 0.00 | 0.00 | 0.00 | 85 | 1022.2 |
| 20260506124410 | 60 | 215 | 8.0 | 15.0 | 0.00 | 0.00 | 0.00 | 84 | 1022.4 |
| 20260506123409 | 59 | 209 | 4.0 | 7.0 | 0.00 | 0.00 | 0.00 | 86 | 1022.2 |
| 20260506122409 | 59 | 214 | 5.0 | 9.0 | 0.00 | 0.00 | 0.00 | 86 | 1022.4 |
| 20260506121408 | 57 | 218 | 7.0 | 13.0 | 0.00 | 0.00 | 0.00 | 85 | 1022.4 |
| 20260506120507 | 56 | 216 | 4.0 | 9.0 | 0.00 | 0.00 | 0.00 | 86 | 1022.7 |
| 20260506115510 | 57 | 226 | 6.0 | 14.0 | 0.00 | 0.00 | 0.00 | 86 | 1022.7 |
| 20260506114510 | 58 | 219 | 5.0 | 11.0 | 0.00 | 0.00 | 0.00 | 85 | 1022.6 |
| 20260506112610 | 58 | 218 | 4.0 | 8.0 | 0.00 | 0.00 | 0.00 | 86 | 1022.4 |
| 20260506110609 | 57 | 221 | 3.0 | 7.0 | 0.00 | 0.00 | 0.00 | 86 | 1022.4 |
| 20260506104608 | 55 | 222 | 3.0 | 9.0 | 0.00 | 0.00 | 0.00 | 84 | 1022.3 |
| 20260506103608 | 55 | 220 | 1.0 | 4.0 | 0.00 | 0.00 | 0.00 | 85 | 1022.6 |
| 20260506102609 | 54 | 211 | 4.0 | 10.0 | 0.00 | 0.00 | 0.00 | 84 | 1022.6 |
| 20260506101707 | 53 | 219 | 3.0 | 7.0 | 0.00 | 0.00 | 0.00 | 84 | 1022.4 |
| 20260506100711 | 53 | 208 | 3.0 | 6.0 | 0.00 | 0.00 | 0.00 | 85 | 1022.4 |
| 20260506100625 | 53 | 215 | 4.0 | 7.0 | 0.00 | 0.00 | 0.00 | 84 | 1022.4 |
| 20260506095708 | 53 | 229 | 2.0 | 5.0 | 0.00 | 0.00 | 0.00 | 83 | 1022.5 |
| 20260506094706 | 53 | 206 | 3.0 | 11.0 | 0.00 | 0.00 | 0.00 | 83 | 1022.7 |
| 20260506092709 | 54 | 225 | 2.0 | 4.0 | 0.00 | 0.00 | 0.00 | 84 | 1022.4 |
| 20260506090809 | 53 | 221 | 3.0 | 4.0 | 0.00 | 0.00 | 0.00 | 84 | 1022.4 |
| 20260506085810 | 53 | 222 | 3.0 | 7.0 | 0.00 | 0.00 | 0.00 | 83 | 1022.5 |
| 20260506084907 | 54 | 213 | 2.0 | 4.0 | 0.00 | 0.00 | 0.00 | 83 | 1022.8 |
| 20260506083908 | 54 | 206 | 3.0 | 5.0 | 0.00 | 0.00 | 0.00 | 82 | 1022.8 |
| 20260506082909 | 53 | 214 | 4.0 | 9.0 | 0.00 | 0.00 | 0.00 | 82 | 1022.7 |
| 20260506082009 | 53 | 217 | 3.0 | 6.0 | 0.00 | 0.00 | 0.00 | 83 | 1022.7 |
| 20260506080109 | 53 | 217 | 3.0 | 5.0 | 0.00 | 0.00 | 0.00 | 82 | 1022.7 |
| 20260506073122 | 53 | 208 | 7.0 | 15.0 | 0.00 | 0.00 | 0.00 | 81 | 1022.5 |